Flag for Vietnam Weather past 2 weeks in Hanoi, Vietnam

Now
75 °F

Broken clouds.


Feels Like: 77 °F
Forecast: 65 / 72 °F
Wind: 15 mph from Northeast

Location: Ha Noi Airport

Current Time: Mar 3, 2015 at 2:33:14 PM

Latest Report: Mar 3, 2015 at 2:00 PM


Visibility: N/A

Pressure: 29.80 "Hg

Humidity: 65%

Dew point: 63 °F

Location of HanoiLocation

Historic Weather in Hanoi — Graph

°F

Hanoi temperature yesterday

Maximum temperature yesterday: 68 °F (at 3:00 PM)
Minimum temperature yesterday: 63 °F (at 4:00 AM)
Average temperature yesterday: 65 °F

Past Weeks' High & Low Weather Summary

 TemperatureHumidityPressure
High84 °F (Feb 24, 1:30 PM)100% (Feb 22, 8:30 AM)30.12 "Hg (Feb 22, 8:30 AM)
Low63 °F (Mar 2, 4:00 AM)55% (Feb 24, 2:30 PM)29.71 "Hg (Feb 24, 4:00 PM)
Average73 °F83%29.90 "Hg
* Reported Feb 16 1:00 PM — Mar 3 1:30 PM, Hanoi, Weather by CustomWeather, © 2015

Note: Actual official high and low records may vary slightly from our data, if they occured in-between our weather recording intervals... More about our weather records

Advertising

Hanoi weather history for previous 24 hours

 ConditionsComfort  
Time TempWeatherWind HumidityBarometerVisibility
1:30 PM
Tue, Mar 3
75 °FBroken clouds.12 mph69%29.80 "HgN/A
1:00 PM77 °FBroken clouds.6 mph69%29.83 "Hg6 mi
12:30 PM77 °FBroken clouds.7 mph74%29.83 "Hg4 mi
12:00 PM75 °FBroken clouds.8 mph78%29.86 "Hg4 mi
11:30 AM77 °FBroken clouds.7 mph74%29.86 "HgN/A
10:30 AM75 °FScattered clouds.7 mph78%29.89 "Hg6 mi
10:00 AM73 °FBroken clouds.6 mph83%29.89 "Hg5 mi
9:30 AM73 °FBroken clouds.3 mph83%29.89 "Hg5 mi
9:00 AM70 °FBroken clouds.2 mph94%29.86 "Hg4 mi
8:30 AM70 °FBroken clouds.3 mph88%29.86 "Hg3 mi
8:00 AM70 °FBroken clouds.5 mph88%29.83 "Hg4 mi
7:30 AM68 °FFog.5 mph94%29.83 "Hg2 mi
7:00 AM68 °FFog.5 mph100%29.80 "Hg1 mi
6:30 AM68 °FDrizzle. Fog.5 mph100%29.77 "Hg1 mi
6:00 AM68 °FDrizzle. Fog.3 mph100%29.77 "Hg1 mi
5:30 AM68 °FDrizzle. Fog.2 mph100%29.74 "Hg1 mi
5:00 AM68 °FDrizzle. Fog.2 mph100%29.74 "Hg1 mi
4:30 AM68 °FDrizzle. Fog.1 mph100%29.74 "Hg1 mi
4:00 AM68 °FDrizzle. Fog.3 mph100%29.71 "Hg1 mi
3:30 AM68 °FDrizzle. Fog.3 mph100%29.71 "Hg1 mi
3:00 AM68 °FDrizzle. Fog.3 mph100%29.74 "Hg1 mi
2:30 AM68 °FDrizzle. Fog.7 mph94%29.74 "Hg1 mi
2:00 AM68 °FDrizzle. Fog.6 mph94%29.74 "Hg1 mi
1:30 AM68 °FDrizzle. Fog.6 mph94%29.74 "Hg1 mi
1:00 AM68 °FDrizzle. Fog.7 mph94%29.77 "Hg1 mi
12:30 AM68 °FDrizzle. Fog.7 mph94%29.77 "Hg1 mi
12:00 AM68 °FDrizzle. Fog.8 mph94%29.77 "Hg1 mi
11:30 PM
Mon, Mar 2
66 °FDrizzle. Fog.8 mph100%29.80 "Hg1 mi
11:00 PM66 °FDrizzle. Fog.9 mph94%29.80 "Hg1 mi
10:30 PM66 °FDrizzle. Fog.7 mph94%29.80 "Hg1 mi
10:00 PM66 °FDrizzle. Fog.7 mph94%29.80 "Hg2 mi
9:30 PM66 °FDrizzle. Fog.8 mph94%29.80 "Hg1 mi
9:00 PM66 °FDrizzle. Fog.8 mph94%29.80 "Hg1 mi
8:30 PM66 °FDrizzle. Fog.10 mphN/AN/A1 mi
8:00 PM66 °FDrizzle. Fog.12 mph94%29.80 "Hg1 mi
7:30 PM66 °FDrizzle. Fog.10 mph94%29.77 "Hg1 mi
7:00 PM66 °FDrizzle. Fog.12 mph94%29.77 "Hg1 mi
6:30 PM66 °FDrizzle. Fog.12 mph94%29.77 "Hg2 mi
6:00 PM66 °FFog.10 mph94%29.77 "Hg2 mi
5:30 PM66 °FFog.12 mph88%29.77 "Hg2 mi
5:00 PM68 °FFog.14 mph83%29.77 "Hg2 mi
4:30 PM68 °FBroken clouds.15 mph83%29.77 "Hg3 mi
4:00 PM68 °FBroken clouds.14 mph88%29.77 "Hg3 mi
3:30 PM68 °FBroken clouds.15 mph83%29.80 "Hg4 mi
3:00 PM68 °FBroken clouds.13 mph83%29.80 "Hg4 mi
2:30 PM66 °FBroken clouds.13 mph88%29.83 "Hg4 mi
2:00 PM66 °FBroken clouds.9 mph88%29.86 "Hg4 mi
Weather by CustomWeather, © 2015

See weather overviewHow to use our weather pages